EW0805 Weather Reports


Display with metric or nautical units.
time (UTC)temp
F
wind
direction
speed
MPH
gust
MPH
rain 1hr
in
rain 24hr
in
rain mn
in
humidity
%
barometer
mb
20260507074514 47 99 0.0 3.0 0.00 0.00 0.00 1 1016.8
20260507073011 46 37 2.0 5.0 0.00 0.00 0.00 1 1016.8
20260507071505 45 56 2.0 4.0 0.00 0.00 0.00 1 1016.8
20260507070002 43 49 1.0 3.0 0.00 0.00 0.00 1 1016.8
20260507064600 42 55 0.0 2.0 0.00 0.00 0.00 1 1016.8
20260507063057 41 317 0.0 0.0 0.00 0.00 0.00 1 1016.8
20260507061548 40 310 0.0 0.0 0.00 0.00 0.00 1 1016.8
20260507060043 40 295 0.0 2.0 0.00 0.00 0.00 1 1016.7
20260507054540 39 295 0.0 2.0 0.00 0.00 0.00 1 1016.6
20260507053034 39 302 0.0 1.0 0.00 0.00 0.00 1 1016.5
20260507051532 39 302 0.0 1.0 0.00 0.00 0.00 1 1016.4
20260507050028 39 337 0.0 0.0 0.00 0.00 0.00 1 1016.4
20260507044519 40 337 0.0 0.0 0.00 0.00 0.00 1 1016.2
20260507043022 40 337 0.0 0.0 0.00 0.00 0.00 1 1016.1
20260507041511 40 337 0.0 0.0 0.00 0.00 0.00 1 1016.1
20260507040010 41 337 0.0 0.0 0.00 0.00 0.00 1 1016.2
20260507034503 41 337 0.0 0.0 0.00 0.00 0.00 1 1016.2
20260507033105 41 337 0.0 0.0 0.00 0.00 0.00 1 1016.1
20260507031554 42 337 0.0 0.0 0.00 0.00 0.00 1 1016.2
20260507030049 42 337 0.0 0.0 0.00 0.00 0.00 1 1016.1
20260507024551 43 337 0.0 0.0 0.00 0.00 0.00 1 1016.1
20260507023047 43 337 0.0 0.0 0.00 0.00 0.00 1 1016.0
20260507021538 44 337 0.0 2.0 0.00 0.00 0.00 1 1016.1
20260507020045 44 343 0.0 2.0 0.00 0.00 0.00 1 1015.9
20260507014531 44 343 0.0 0.0 0.00 0.00 0.00 1 1015.8
20260507013041 44 343 0.0 0.0 0.00 0.00 0.00 1 1015.8
20260507011519 45 343 0.0 1.0 0.00 0.00 0.00 1 1015.9
20260507010023 45 343 0.0 1.0 0.00 0.00 0.00 1 1015.9
20260507004509 46 343 0.0 1.0 0.00 0.00 0.00 1 1015.9
20260507003006 46 343 0.0 1.0 0.00 0.00 0.00 1 1015.9
20260507001501 47 343 0.0 1.0 0.00 0.00 0.00 1 1016.0
20260507000058 47 324 0.0 2.0 0.00 0.00 0.00 1 1016.0
20260506234553 47 338 0.0 2.0 0.00 0.00 0.00 5 1015.9
20260506233102 48 333 0.0 2.0 0.00 0.00 0.00 14 1015.7
20260506231549 48 335 0.0 2.0 0.00 0.00 0.00 20 1015.7
20260506230048 48 343 0.0 2.0 0.00 0.00 0.00 26 1015.7
20260506224538 49 348 0.0 2.0 0.00 0.00 0.00 30 1015.7
20260506223041 49 19 0.0 3.0 0.00 0.00 0.00 34 1015.7
20260506221529 50 37 0.0 3.0 0.00 0.00 0.00 40 1015.6
20260506220026 50 17 1.0 3.0 0.00 0.00 0.00 45 1015.5
20260506214535 50 34 1.0 5.0 0.00 0.00 0.00 50 1015.4
20260506213019 50 51 0.0 4.0 0.00 0.00 0.00 53 1015.4
20260506211513 50 19 1.0 6.0 0.00 0.00 0.00 56 1015.3
20260506210008 50 54 1.0 4.0 0.00 0.00 0.00 58 1015.2
20260506204503 51 353 1.0 5.0 0.00 0.00 0.00 61 1015.2
20260506203100 51 324 1.0 4.0 0.00 0.00 0.00 62 1015.1
20260506201555 51 22 1.0 5.0 0.00 0.00 0.00 62 1014.9
20260506200051 51 348 1.0 4.0 0.00 0.00 0.00 62 1014.9
20260506194547 52 329 0.0 4.0 0.00 0.00 0.00 61 1014.7
20260506193040 52 348 2.0 5.0 0.00 0.00 0.00 61 1014.5
20260506191540 52 35 3.0 6.0 0.00 0.00 0.00 61 1014.4
20260506190031 53 306 2.0 9.0 0.00 0.00 0.00 61 1014.4
20260506184540 53 295 3.0 5.0 0.00 0.00 0.00 61 1014.3
20260506183030 53 312 2.0 6.0 0.00 0.00 0.00 61 1014.2
20260506181517 53 15 1.0 4.0 0.00 0.00 0.00 61 1014.1
20260506180012 53 324 2.0 6.0 0.00 0.00 0.00 60 1013.9
20260506174507 54 14 2.0 6.0 0.00 0.00 0.00 60 1013.6
20260506173003 54 309 1.0 6.0 0.00 0.00 0.00 59 1013.7
20260506171605 54 293 4.0 8.0 0.00 0.00 0.00 59 1013.6
20260506170056 55 337 3.0 8.0 0.00 0.00 0.00 58 1013.5
20260506164550 55 324 2.0 9.0 0.00 0.00 0.00 59 1013.5
20260506163046 56 332 4.0 10.0 0.00 0.00 0.00 58 1013.6
20260506161546 57 324 2.0 9.0 0.00 0.00 0.00 57 1013.5
20260506160037 56 358 6.0 11.0 0.00 0.00 0.00 57 1013.5
20260506154533 57 337 2.0 11.0 0.00 0.00 0.00 56 1013.6
20260506153028 57 309 2.0 8.0 0.00 0.00 0.00 55 1013.7
20260506151522 58 46 4.0 13.0 0.00 0.00 0.00 56 1013.6
20260506150019 58 326 4.0 11.0 0.00 0.00 0.00 56 1013.8
20260506144517 59 340 3.0 14.0 0.00 0.00 0.00 55 1013.8
20260506143011 60 298 3.0 9.0 0.00 0.00 0.00 54 1013.7
20260506141506 59 50 4.0 14.0 0.00 0.00 0.00 54 1013.7
20260506140003 60 64 4.0 12.0 0.00 0.00 0.00 53 1013.7
20260506134557 61 15 4.0 10.0 0.00 0.00 0.00 52 1013.7
20260506133052 60 348 3.0 15.0 0.00 0.00 0.00 54 1013.7
20260506131553 60 339 4.0 12.0 0.00 0.00 0.00 53 1013.6
20260506130044 60 339 8.0 16.0 0.00 0.00 0.00 51 1013.7
20260506124539 60 348 4.0 17.0 0.00 0.00 0.00 51 1013.6
20260506123035 60 52 4.0 16.0 0.00 0.00 0.00 50 1013.6
20260506121529 60 342 4.0 13.0 0.00 0.00 0.00 50 1013.7
20260506120025 60 358 5.0 13.0 0.00 0.00 0.00 49 1013.7
20260506114526 60 343 8.0 16.0 0.00 0.00 0.00 50 1013.7
20260506113029 59 43 7.0 14.0 0.00 0.00 0.00 50 1013.9
20260506111513 58 79 7.0 15.0 0.00 0.00 0.00 52 1013.9
20260506110008 58 312 4.0 15.0 0.00 0.00 0.00 53 1013.9
20260506104502 57 22 5.0 12.0 0.00 0.00 0.00 54 1014.0
20260506103058 56 19 8.0 14.0 0.00 0.00 0.00 56 1014.0
20260506101553 55 297 5.0 11.0 0.00 0.00 0.00 59 1014.0
20260506100049 53 301 3.0 10.0 0.00 0.00 0.00 61 1014.1
20260506094545 52 300 5.0 10.0 0.00 0.00 0.00 61 1014.1
20260506093043 52 358 3.0 10.0 0.00 0.00 0.00 61 1014.1
20260506091551 51 335 6.0 12.0 0.00 0.00 0.00 61 1014.1
20260506090141 51 348 2.0 11.0 0.00 0.00 0.00 61 1014.2
20260506084544 52 315 4.0 13.0 0.00 0.00 0.00 61 1014.1
20260506083034 52 320 5.0 11.0 0.00 0.00 0.00 60 1014.1
20260506081530 51 285 5.0 12.0 0.00 0.00 0.00 55 1014.1